[[{"header":{"parameterUnit":"m.s-1","parameterCategory":1,"la1":30.2991,"la2":30.254,"lo1":-89.0895,"lo2":-89.0444,"dy":0.0017,"dx":0.0017,"nx":28,"ny":28,"refTime":"2023-11-01T09:00:00:Z","depth":0,"parameterNumber":2,"parameterNumberName":"U-component_of_WINDS"},"data":[0,0,0,0,0,0,0,0,0,0,0,0,0,0,0,0,0,0,0,0,0,0,0,0,0,0,0,0,0,0,0,0,0,0,0,0,0,0,0,0,0,0,0,0,0,0,0,0,0,0,0,0,0,0,0,0,0,0,-1.6725,-1.6725,0,-1.6752,-1.6752,-1.6752,-1.6726,-1.6725,-1.6724,-1.6723,-1.6749,-1.6751,-1.6753,0,0,0,0,0,0,0,0,0,0,0,0,0,-1.665,-1.6652,-1.6725,-1.6725,-1.6726,-1.6751,-1.6752,-1.6752,-1.6726,-1.6725,-1.6723,-1.6722,-1.6749,-1.6751,-1.6753,0,0,0,0,0,0,0,0,0,0,0,0,0,-1.668,-1.6652,-1.6725,-1.6716,-1.6715,-1.6751,-1.6752,-1.6752,-1.6726,-1.6725,-1.6723,-1.6722,-1.6748,-1.6751,-1.6753,-1.68,0,0,-1.6761,-1.6762,0,0,0,0,0,0,0,0,-1.6679,-1.6683,-1.6717,-1.6716,-1.6716,-1.6734,-1.6735,-1.6768,-1.6726,-1.6722,-1.6723,-1.6721,-1.6745,-1.6748,-1.6756,-1.6801,-1.6802,-1.6761,-1.6763,-1.6764,-1.6764,0,0,0,0,0,0,0,-1.6677,-1.6682,-1.6735,-1.6717,-1.6717,-1.671,-1.6712,-1.6741,-1.6742,-1.6722,-1.672,-1.6724,-1.6745,-1.6754,-1.6757,-1.6803,-1.6761,-1.6763,-1.6765,-1.6766,-1.6886,-1.6888,0,0,0,0,0,0,-1.6676,-1.668,-1.6735,-1.6736,-1.6693,-1.6712,-1.6715,-1.6729,-1.6742,-1.6742,-1.6725,-1.6723,-1.6751,-1.6754,-1.6758,-1.6813,-1.6764,-1.6766,-1.6767,-1.6885,-1.6887,-1.6889,0,0,0,0,0,0,-1.6674,-1.6681,-1.6733,-1.6708,-1.6714,-1.6715,-1.6732,-1.6731,-1.674,-1.6744,-1.6744,-1.6735,-1.6749,-1.6754,-1.6789,-1.6814,-1.6767,-1.6769,-1.6883,-1.6885,-1.6888,-1.6925,0,0,0,0,0,0,-1.6672,-1.6681,-1.6699,-1.6708,-1.6715,-1.6765,-1.6733,-1.6732,-1.6745,-1.6741,-1.6753,-1.6753,-1.6749,-1.6786,-1.6792,-1.6816,-1.6771,-1.6881,-1.6884,-1.6887,-1.6921,-1.6928,-1.6934,0,0,0,0,0,-1.667,-1.6708,-1.67,-1.6706,-1.6738,-1.6767,-1.6771,-1.6765,-1.6747,-1.6765,-1.6767,-1.6753,-1.681,-1.679,-1.6796,-1.6822,-1.6879,-1.6883,-1.6887,-1.6919,-1.6927,-1.6934,0,0,0,0,0,0,-1.6701,-1.6709,-1.67,-1.6743,-1.6754,-1.6762,-1.6785,-1.6774,-1.6791,-1.6787,-1.6779,-1.6782,-1.6819,-1.6824,-1.6801,-1.6868,-1.6841,-1.6847,-1.6863,-1.6871,-1.6878,-1.6876,-1.6773,0,0,0,0,0,-1.6713,-1.6736,-1.6741,-1.6778,-1.6785,-1.6784,-1.6796,-1.6791,-1.6802,-1.6807,-1.6812,-1.6823,-1.6844,-1.6858,-1.6877,-1.6922,-1.6924,-1.6942,-1.6949,-1.6954,-1.6959,-1.6983,-1.6991,-1.6901,-1.6901,-1.6901,0,0,-1.6738,-1.6745,-1.676,-1.6785,-1.6793,-1.6817,-1.6788,-1.6814,-1.6832,-1.6811,-1.6845,-1.6849,-1.6861,-1.6901,-1.6919,-1.6906,-1.6984,-1.6959,-1.6963,-1.6965,-1.6987,-1.6996,-1.7004,-1.6904,-1.6903,-1.6903,0,0,-1.6795,-1.6803,-1.6834,-1.6843,-1.6856,-1.6855,-1.6863,-1.6872,-1.6874,-1.6908,-1.6893,-1.6913,-1.6948,-1.6958,-1.6967,-1.7027,-1.7015,-1.7034,-1.7067,-1.7091,-1.7098,-1.7104,-1.7126,-1.7134,-1.7038,-1.7039,-1.7039,0,-1.6824,-1.686,-1.6852,-1.688,-1.6891,-1.6873,-1.6905,-1.6913,-1.6932,-1.694,-1.6925,-1.6969,-1.6976,-1.7018,-1.7033,-1.7041,-1.7049,-1.7033,-1.7097,-1.7104,-1.7109,-1.713,-1.7138,-1.7041,-1.7041,-1.704,-1.704,0,-1.6895,-1.692,-1.6944,-1.6962,-1.6976,-1.7005,-1.7002,-1.7017,-1.701,-1.701,-1.7045,-1.7052,-1.7072,-1.7082,-1.7075,-1.7123,-1.7115,-1.7099,-1.7072,-1.712,-1.714,-1.7147,-1.7044,-1.7043,-1.7043,-1.7042,0,0,-1.6974,-1.6987,-1.6996,-1.7004,-1.7017,-1.7036,-1.7064,-1.7084,-1.7097,-1.711,-1.7133,-1.7163,-1.7149,-1.7159,-1.7153,-1.7174,-1.7221,-1.7155,-1.7155,-1.7168,-1.7274,-1.7287,-1.7296,-1.7212,-1.7214,-1.7215,-1.7273,0,-1.7032,-1.7082,-1.7076,-1.7123,-1.7146,-1.7128,-1.7153,-1.7163,-1.7164,-1.7183,-1.7183,-1.7205,-1.7184,-1.719,-1.7209,-1.7211,-1.7242,-1.7207,-1.7234,-1.7235,-1.7233,-1.7306,-1.7319,-1.7374,-1.7281,-1.7282,-1.7283,0,-1.7107,-1.7123,-1.7173,-1.7181,-1.7191,-1.7213,-1.723,-1.7249,-1.726,-1.7259,-1.727,-1.726,-1.7288,-1.7261,-1.7299,-1.7275,-1.7286,-1.7288,-1.729,-1.7293,-1.7263,-1.7311,-1.7391,-1.74,-1.7295,-1.7294,-1.7293,0,-1.716,-1.7194,-1.7228,-1.7235,-1.7246,-1.7262,-1.7268,-1.7277,-1.7289,-1.7304,-1.7312,-1.733,-1.734,-1.7354,-1.7349,-1.7329,-1.7388,-1.736,-1.7388,-1.7388,-1.7402,-1.7402,-1.7486,-1.7408,-1.7408,-1.7407,-1.7407,0,-1.7227,-1.7258,-1.7252,-1.7273,-1.7308,-1.73,-1.7334,-1.7337,-1.7345,-1.7366,-1.7351,-1.7371,-1.7363,-1.7382,-1.7378,-1.7411,-1.7415,-1.7415,-1.7414,-1.7417,-1.7417,-1.7425,-1.7421,-1.741,-1.7409,-1.7409,-1.7408,0,-1.7292,-1.729,-1.7326,-1.7333,-1.7336,-1.7361,-1.7366,-1.7386,-1.7385,-1.7412,-1.7418,-1.7417,-1.7439,-1.7435,-1.7459,-1.7456,-1.7497,-1.7491,-1.7494,-1.7492,-1.7521,-1.7519,-1.7613,-1.7625,-1.7539,-1.754,-1.7541,0,-1.7335,-1.7359,-1.7369,-1.7382,-1.7388,-1.7409,-1.7422,-1.7414,-1.7428,-1.7441,-1.7459,-1.748,-1.7496,-1.7532,-1.7533,-1.7551,-1.7545,-1.7577,-1.7548,-1.755,-1.7547,-1.7546,-1.7548,-1.7583,-1.7584,-1.7585,-1.7586,0,-1.7412,-1.7409,-1.7428,-1.7446,-1.7461,-1.7475,-1.7487,-1.7498,-1.7492,-1.7507,-1.753,-1.7542,-1.7567,-1.7587,-1.7604,-1.7609,-1.7597,-1.7595,-1.7602,-1.7606,-1.7607,-1.7608,-1.751,-1.7593,-1.7592,-1.7592,-1.7591,-1.7591,-1.7468,-1.7488,-1.7498,-1.7519,-1.7527,-1.7539,-1.7558,-1.7559,-1.7578,-1.7597,-1.7591,-1.7617,-1.7626,-1.7647,-1.7654,-1.7673,-1.7661,-1.7672,-1.7675,-1.7678,-1.7682,-1.7603,-1.7676,-1.7676,-1.7676,-1.7676,-1.7675,0,-1.7544,-1.7549,-1.7569,-1.7586,-1.7603,-1.7589,-1.7602,-1.7616,-1.7639,-1.7649,-1.7665,-1.769,-1.771,-1.7712,-1.7731,-1.7746,-1.774,-1.7751,-1.775,-1.7751,-1.7691,-1.7683,-1.7755,-1.7755,-1.7755,-1.7755,-1.7755,-1.7755,-1.7586,-1.7619,-1.7618,-1.7655,-1.766,-1.7685,-1.7693,-1.7703,-1.7711,-1.774,-1.7757,-1.7758,-1.7765,-1.7783,-1.7801,-1.7801,-1.7808,-1.7821,-1.7819,-1.7763,-1.7756,-1.7748,-1.774,-1.7823,-1.7823,-1.7878,-1.7878,-1.7879]},{"header":{"parameterUnit":"m.s-1","parameterCategory":1,"la1":30.2991,"la2":30.254,"lo1":-89.0895,"lo2":-89.0444,"dy":0.0017,"dx":0.0017,"nx":28,"ny":28,"refTime":"2023-11-01T09:00:00:Z","depth":0,"parameterNumber":3,"parameterNumberName":"V-component_of_WINDS"},"data":[0,0,0,0,0,0,0,0,0,0,0,0,0,0,0,0,0,0,0,0,0,0,0,0,0,0,0,0,0,0,0,0,0,0,0,0,0,0,0,0,0,0,0,0,0,0,0,0,0,0,0,0,0,0,0,0,0,0,-7.2608,-7.2608,0,-7.2684,-7.2685,-7.2686,-7.2645,-7.2643,-7.2641,-7.2639,-7.2711,-7.2715,-7.2718,0,0,0,0,0,0,0,0,0,0,0,0,0,-7.242,-7.2424,-7.2607,-7.2608,-7.2609,-7.2684,-7.2685,-7.2686,-7.2645,-7.2643,-7.264,-7.2638,-7.271,-7.2714,-7.2719,0,0,0,0,0,0,0,0,0,0,0,0,0,-7.2499,-7.2425,-7.2607,-7.2598,-7.2598,-7.2684,-7.2685,-7.2686,-7.2646,-7.2643,-7.2639,-7.2637,-7.2708,-7.2714,-7.2719,-7.2817,0,0,-7.2737,-7.2739,0,0,0,0,0,0,0,0,-7.2495,-7.2506,-7.2598,-7.2599,-7.2599,-7.2652,-7.2645,-7.273,-7.2646,-7.2627,-7.2639,-7.2635,-7.2693,-7.27,-7.2721,-7.282,-7.2823,-7.2738,-7.2741,-7.2743,-7.2745,0,0,0,0,0,0,0,-7.2489,-7.2503,-7.2638,-7.26,-7.26,-7.2588,-7.2596,-7.2661,-7.2676,-7.2629,-7.2626,-7.2636,-7.2693,-7.2716,-7.2722,-7.2824,-7.2737,-7.2742,-7.2746,-7.2748,-7.3008,-7.3011,0,0,0,0,0,0,-7.2485,-7.2498,-7.2635,-7.264,-7.2539,-7.2594,-7.2603,-7.2638,-7.2676,-7.2679,-7.2639,-7.2634,-7.2707,-7.2716,-7.2725,-7.2842,-7.2743,-7.2749,-7.2752,-7.3004,-7.3008,-7.3012,0,0,0,0,0,0,-7.2481,-7.2498,-7.2632,-7.2569,-7.2585,-7.2601,-7.264,-7.2641,-7.2664,-7.2683,-7.2685,-7.266,-7.2705,-7.2717,-7.2795,-7.2844,-7.2751,-7.2757,-7.3,-7.3005,-7.301,-7.3077,0,0,0,0,0,0,-7.2476,-7.2497,-7.2535,-7.257,-7.2588,-7.2703,-7.2643,-7.2645,-7.2675,-7.2669,-7.2703,-7.2706,-7.2704,-7.2786,-7.2801,-7.285,-7.2761,-7.2996,-7.3002,-7.3009,-7.307,-7.3084,-7.3095,0,0,0,0,0,-7.247,-7.2549,-7.2537,-7.2554,-7.2637,-7.2706,-7.2716,-7.2714,-7.2679,-7.2717,-7.2729,-7.2705,-7.2836,-7.2795,-7.281,-7.2862,-7.2993,-7.3001,-7.3008,-7.3065,-7.3081,-7.3095,0,0,0,0,0,0,-7.2517,-7.2553,-7.2541,-7.2634,-7.2668,-7.2699,-7.2746,-7.2731,-7.2773,-7.2765,-7.2759,-7.2767,-7.2848,-7.2863,-7.2816,-7.2959,-7.2909,-7.292,-7.2947,-7.2962,-7.2974,-7.2969,-7.2766,0,0,0,0,0,-7.2539,-7.2594,-7.2621,-7.2701,-7.2719,-7.273,-7.276,-7.2755,-7.2788,-7.2802,-7.282,-7.2851,-7.29,-7.2932,-7.2977,-7.3072,-7.3079,-7.3116,-7.3128,-7.3138,-7.3148,-7.32,-7.3217,-7.3037,-7.3037,-7.3037,0,0,-7.2583,-7.261,-7.2645,-7.2711,-7.2737,-7.2792,-7.2742,-7.2802,-7.2843,-7.281,-7.2886,-7.29,-7.2935,-7.3022,-7.3062,-7.3037,-7.3199,-7.3148,-7.3156,-7.316,-7.321,-7.3227,-7.3242,-7.3043,-7.3042,-7.3041,0,0,-7.2694,-7.2719,-7.2789,-7.2816,-7.2856,-7.2863,-7.288,-7.2914,-7.2924,-7.3,-7.2977,-7.3024,-7.3108,-7.3134,-7.3158,-7.328,-7.3259,-7.3294,-7.3359,-7.341,-7.3424,-7.3436,-7.348,-7.3496,-7.3304,-7.3304,-7.3304,0,-7.2743,-7.2828,-7.2826,-7.289,-7.292,-7.2895,-7.2966,-7.2991,-7.3043,-7.3063,-7.3035,-7.3141,-7.3162,-7.3256,-7.3286,-7.3306,-7.3324,-7.329,-7.3422,-7.3435,-7.3446,-7.3488,-7.3505,-7.3308,-7.3308,-7.3307,-7.3307,0,-7.2888,-7.2947,-7.2998,-7.3052,-7.3088,-7.3154,-7.3161,-7.3197,-7.3189,-7.3199,-7.3277,-7.3302,-7.3353,-7.3375,-7.3367,-7.3468,-7.3452,-7.3423,-7.3373,-7.3468,-7.3507,-7.3523,-7.3314,-7.3313,-7.3311,-7.331,0,0,-7.3029,-7.3083,-7.3102,-7.3127,-7.317,-7.3214,-7.3279,-7.3331,-7.3362,-7.3399,-7.3453,-7.3525,-7.3499,-7.3527,-7.3522,-7.3566,-7.3662,-7.3533,-7.3533,-7.3556,-7.3775,-7.3797,-7.3815,-7.3649,-7.3652,-7.3654,-7.3772,0,-7.3143,-7.3259,-7.326,-7.3366,-7.3421,-7.3399,-7.3455,-7.3487,-7.3498,-7.3544,-7.3555,-7.3607,-7.3569,-7.3586,-7.3629,-7.3642,-7.3706,-7.3633,-7.3698,-7.37,-7.369,-7.3836,-7.3859,-7.3969,-7.3788,-7.379,-7.3792,0,-7.3291,-7.3336,-7.3448,-7.3485,-7.3508,-7.3559,-7.3607,-7.3652,-7.3687,-7.3692,-7.3724,-7.3712,-7.3777,-7.3725,-7.3813,-7.3764,-7.379,-7.38,-7.3804,-7.381,-7.3752,-7.3846,-7.4004,-7.4021,-7.3816,-7.3814,-7.3812,0,-7.3384,-7.3472,-7.3551,-7.3573,-7.3617,-7.3653,-7.3673,-7.3705,-7.3737,-7.3779,-7.3799,-7.3847,-7.3873,-7.3909,-7.391,-7.3872,-7.4,-7.3948,-7.4005,-7.4005,-7.4033,-7.4031,-7.4198,-7.4049,-7.4049,-7.4049,-7.4048,0,-7.3511,-7.3581,-7.3594,-7.3643,-7.372,-7.372,-7.3796,-7.3812,-7.3841,-7.3891,-7.3874,-7.3921,-7.392,-7.3967,-7.3968,-7.4042,-7.4053,-7.4058,-7.4058,-7.406,-7.406,-7.4077,-7.407,-7.4053,-7.4052,-7.4051,-7.4051,0,-7.3628,-7.3639,-7.3725,-7.3761,-7.3771,-7.3827,-7.3857,-7.3902,-7.3912,-7.3976,-7.3991,-7.4005,-7.4061,-7.4066,-7.4129,-7.4129,-7.4219,-7.4209,-7.4208,-7.4207,-7.4264,-7.4259,-7.4448,-7.4473,-7.4308,-7.4309,-7.4311,0,-7.3709,-7.3763,-7.3805,-7.3839,-7.3862,-7.3916,-7.3949,-7.3951,-7.3986,-7.4031,-7.4071,-7.4125,-7.4168,-7.4257,-7.4272,-7.432,-7.4312,-7.4376,-7.4319,-7.4321,-7.4314,-7.4311,-7.4317,-7.4387,-7.4388,-7.439,-7.4391,0,-7.3851,-7.3855,-7.3905,-7.3957,-7.3998,-7.4039,-7.4076,-7.4105,-7.411,-7.415,-7.4208,-7.4242,-7.4308,-7.4362,-7.441,-7.4427,-7.4411,-7.4409,-7.4425,-7.4428,-7.4425,-7.4428,-7.4238,-7.4404,-7.4403,-7.4402,-7.4401,-7.4401,-7.3953,-7.4,-7.4039,-7.4095,-7.4124,-7.4161,-7.4206,-7.4223,-7.4272,-7.4328,-7.4325,-7.4388,-7.4422,-7.4485,-7.4507,-7.4555,-7.4534,-7.4557,-7.4563,-7.4568,-7.4575,-7.4418,-7.4564,-7.4563,-7.4563,-7.4563,-7.4562,0,-7.4095,-7.4119,-7.4171,-7.4227,-7.4271,-7.4253,-7.4295,-7.4332,-7.439,-7.4424,-7.4468,-7.4534,-7.4586,-7.4606,-7.4657,-7.4692,-7.4686,-7.4705,-7.4703,-7.4708,-7.4591,-7.4572,-7.471,-7.471,-7.471,-7.471,-7.471,-7.471,-7.4174,-7.4254,-7.4262,-7.4356,-7.4379,-7.4444,-7.4469,-7.4502,-7.4529,-7.4606,-7.465,-7.4664,-7.4692,-7.4745,-7.4792,-7.4796,-7.4815,-7.4839,-7.484,-7.4731,-7.4716,-7.4701,-7.4684,-7.4843,-7.4843,-7.4953,-7.4954,-7.4955]}]]